"generation_time";"museums_public";"collections_public";"objects_public";"images_public";"resouces_public";"transcriptions_public";"museum_records_public";"collection_records_public";"object_records_public";"literature";"exhibitions_public";"appointments_public";"articles_public";"series_public";"events";"links";"institution_faq_entries";"distinct_persinst";"distinct_places";"distinct_times";"distinct_tags";"avg_text_len_public";"avg_puqi_public"
"2019-12-06";"1";"6";"781";"0";"1562";"0";"0";"0";"0";"917";"0";"0";"0";"0";"458";"1314";"0";"235";"22";"217";"57";"159.4";"186.2"
"2019-12-10";"2";"29";"12603";"0";"25177";"0";"0";"0";"0";"15253";"0";"0";"0";"90";"5054";"17788";"0";"791";"483";"2373";"365";"197.9";"156.2"
"2019-12-11";"2";"29";"12603";"0";"25177";"0";"0";"0";"0";"15253";"0";"0";"0";"90";"5053";"17788";"0";"791";"483";"2176";"361";"197.9";"187.7"
"2019-12-12";"2";"29";"12603";"0";"25177";"0";"0";"0";"0";"15253";"0";"0";"0";"90";"5053";"17788";"0";"790";"484";"2176";"361";"197.9";"187.7"
"2019-12-14";"2";"29";"12603";"0";"25177";"0";"0";"0";"0";"15253";"0";"0";"0";"90";"5049";"17788";"0";"790";"480";"2176";"359";"197.9";"187.7"
"2019-12-15";"2";"29";"12606";"0";"25183";"0";"0";"0";"0";"15253";"0";"0";"0";"90";"5047";"17788";"0";"790";"478";"2176";"352";"197.9";"187.7"
"2019-12-16";"2";"29";"12606";"0";"25183";"0";"0";"0";"0";"15253";"0";"0";"0";"90";"5047";"17788";"0";"790";"478";"2176";"352";"197.9";"187.7"
"2019-12-17";"2";"29";"12606";"0";"25183";"0";"0";"0";"0";"15253";"0";"0";"0";"90";"5046";"17788";"0";"790";"477";"2176";"351";"197.9";"187.7"
"2019-12-18";"2";"29";"12606";"0";"25183";"0";"0";"0";"0";"15253";"0";"0";"0";"90";"5046";"17788";"0";"790";"477";"2176";"351";"197.9";"187.7"
"2019-12-19";"2";"29";"12606";"0";"25183";"0";"0";"0";"0";"15253";"0";"0";"0";"90";"5046";"17788";"0";"790";"477";"2176";"351";"197.9";"187.7"
"2019-12-20";"2";"29";"12606";"0";"25183";"0";"0";"0";"0";"15253";"0";"0";"0";"90";"5046";"17788";"0";"790";"477";"2176";"351";"197.9";"187.7"
"2019-12-21";"2";"29";"12606";"0";"25183";"0";"0";"0";"0";"15253";"0";"0";"0";"90";"5046";"17788";"0";"790";"477";"2176";"351";"197.9";"187.7"
"2019-12-22";"2";"29";"12606";"0";"25183";"0";"0";"0";"0";"15253";"0";"0";"0";"90";"5046";"17788";"0";"790";"477";"2176";"351";"197.9";"187.7"
"2019-12-23";"2";"29";"12606";"0";"25183";"0";"0";"0";"0";"15253";"0";"0";"0";"90";"5046";"17788";"0";"790";"477";"2176";"351";"197.9";"187.7"
"2019-12-24";"2";"29";"12606";"0";"25183";"0";"0";"0";"0";"15253";"0";"0";"0";"90";"5046";"17788";"0";"790";"477";"2176";"351";"197.9";"187.7"
"2019-12-25";"2";"29";"12606";"0";"25183";"0";"0";"0";"0";"15253";"0";"0";"0";"90";"5046";"17788";"0";"790";"477";"2176";"351";"197.9";"187.7"
"2019-12-26";"2";"29";"12606";"0";"25183";"0";"0";"0";"0";"15253";"0";"0";"0";"90";"5046";"17788";"0";"790";"477";"2176";"351";"197.9";"187.7"
"2019-12-27";"2";"29";"12606";"0";"25183";"0";"0";"0";"0";"15253";"0";"0";"0";"90";"5046";"17788";"0";"790";"477";"2176";"351";"197.9";"187.7"
"2019-12-28";"2";"29";"12606";"0";"25183";"0";"0";"0";"0";"15253";"0";"0";"0";"90";"5046";"17788";"0";"790";"477";"2176";"351";"197.9";"187.7"
"2019-12-29";"2";"29";"12606";"0";"25183";"0";"0";"0";"0";"15253";"0";"0";"0";"90";"5046";"17788";"0";"790";"477";"2176";"351";"197.9";"187.7"
"2019-12-30";"2";"29";"12606";"0";"25183";"0";"0";"0";"0";"15253";"0";"0";"0";"90";"5046";"17788";"0";"790";"477";"2176";"351";"197.9";"187.7"
"2019-12-31";"2";"29";"12606";"0";"25183";"0";"0";"0";"0";"15253";"0";"0";"0";"90";"5046";"17788";"0";"790";"477";"2176";"351";"197.9";"187.7"
"2020-01-02";"2";"29";"12606";"0";"25183";"0";"0";"0";"0";"15253";"0";"0";"0";"90";"5046";"17788";"0";"790";"477";"2176";"351";"197.9";"187.7"
"2020-01-03";"2";"29";"12606";"0";"25183";"0";"0";"0";"0";"15253";"0";"0";"0";"90";"5046";"17788";"0";"790";"477";"2176";"351";"197.9";"187.7"
"2020-01-04";"2";"29";"12606";"0";"25183";"0";"0";"0";"0";"15253";"0";"0";"0";"90";"5046";"17788";"0";"790";"477";"2176";"351";"197.9";"187.7"
"2020-01-05";"2";"29";"12606";"0";"25183";"0";"0";"0";"0";"15253";"0";"0";"0";"90";"5046";"17788";"0";"790";"477";"2176";"351";"197.9";"187.7"
"2020-01-07";"2";"29";"12606";"0";"25183";"0";"0";"0";"0";"15253";"0";"0";"0";"90";"5046";"17788";"0";"790";"477";"2176";"351";"197.9";"187.7"
"2020-01-08";"2";"29";"12606";"0";"25183";"0";"0";"0";"0";"15253";"0";"0";"0";"90";"5046";"17788";"0";"790";"477";"2176";"351";"197.9";"187.7"
"2020-01-09";"2";"29";"12606";"0";"25183";"0";"0";"0";"0";"15253";"0";"0";"0";"90";"5046";"17788";"0";"790";"477";"2176";"351";"197.9";"187.7"
"2020-01-10";"2";"29";"12606";"0";"25183";"0";"0";"0";"0";"15253";"0";"0";"0";"90";"5046";"17788";"0";"790";"477";"2176";"351";"197.9";"187.7"
"2020-01-11";"2";"29";"12606";"0";"25183";"0";"0";"0";"0";"15253";"0";"0";"0";"90";"5046";"17788";"0";"790";"477";"2176";"351";"197.9";"187.7"
"2020-01-13";"2";"29";"12606";"0";"25183";"0";"0";"0";"0";"15253";"0";"0";"0";"90";"5046";"17788";"0";"790";"477";"2176";"351";"197.9";"187.7"
"2020-01-14";"2";"29";"12606";"0";"25183";"0";"0";"0";"0";"15253";"0";"0";"0";"90";"5046";"17788";"0";"790";"477";"2176";"351";"197.9";"187.7"
"2020-01-15";"2";"29";"12606";"0";"25183";"0";"0";"0";"0";"15253";"0";"0";"0";"90";"5046";"17788";"0";"790";"477";"2176";"351";"197.9";"187.7"
"2020-01-16";"2";"29";"12606";"0";"25183";"0";"0";"0";"0";"15253";"0";"0";"0";"90";"5046";"17788";"0";"790";"477";"2176";"351";"197.9";"187.7"
"2020-01-19";"2";"29";"12606";"0";"25183";"0";"0";"0";"0";"15253";"0";"0";"0";"90";"5046";"17788";"0";"790";"477";"2174";"351";"197.9";"187.7"
"2020-01-20";"2";"29";"12606";"0";"25183";"0";"0";"0";"0";"15253";"0";"0";"0";"90";"5046";"17788";"0";"790";"477";"2174";"351";"197.9";"187.7"
"2020-01-21";"2";"29";"12606";"0";"25183";"0";"0";"0";"0";"15253";"0";"0";"0";"90";"5046";"17788";"0";"790";"477";"2174";"351";"197.9";"187.7"
"2020-01-23";"2";"29";"12606";"0";"25183";"0";"0";"0";"0";"15253";"0";"0";"0";"90";"5046";"17788";"0";"790";"477";"2174";"351";"197.9";"187.7"
"2020-01-24";"2";"29";"12606";"0";"25183";"0";"0";"0";"0";"15253";"0";"0";"0";"90";"5046";"17788";"0";"790";"477";"2174";"351";"197.9";"187.7"
"2020-01-25";"2";"29";"12606";"0";"25183";"0";"0";"0";"0";"15253";"0";"0";"0";"90";"5046";"17788";"0";"790";"477";"2174";"351";"197.9";"187.7"
"2020-01-26";"2";"29";"12606";"0";"25183";"0";"0";"0";"0";"15253";"0";"0";"0";"90";"5046";"17788";"0";"790";"477";"2174";"351";"197.9";"187.7"
"2020-01-27";"2";"29";"12606";"0";"25183";"0";"0";"0";"0";"15253";"0";"0";"0";"90";"5046";"17788";"0";"790";"477";"2174";"351";"197.9";"187.7"
"2020-01-28";"2";"29";"12606";"0";"25183";"0";"0";"0";"0";"15253";"0";"0";"0";"90";"5046";"17788";"0";"790";"477";"2174";"351";"197.9";"187.7"
"2020-02-01";"2";"29";"12606";"0";"25183";"0";"0";"0";"0";"15253";"0";"0";"0";"90";"5046";"17788";"0";"790";"477";"2174";"351";"197.9";"187.7"
"2020-02-02";"2";"29";"12606";"0";"25183";"0";"0";"0";"0";"15253";"0";"0";"0";"90";"5046";"17788";"0";"790";"477";"2174";"351";"197.9";"187.7"
"2020-02-03";"2";"29";"12606";"0";"25183";"0";"0";"0";"0";"15253";"0";"0";"0";"90";"5046";"17788";"0";"790";"477";"2174";"351";"197.9";"187.7"
"2020-02-04";"2";"29";"12606";"0";"25183";"0";"0";"0";"0";"15253";"0";"0";"0";"90";"5046";"17788";"0";"790";"477";"2174";"351";"197.9";"187.7"
"2020-02-05";"2";"29";"12606";"0";"25183";"0";"0";"0";"0";"15253";"0";"0";"0";"90";"5046";"17788";"0";"790";"477";"2174";"351";"197.9";"187.7"
"2020-02-06";"2";"29";"12606";"0";"25183";"0";"0";"0";"0";"15253";"0";"0";"0";"90";"5046";"17788";"0";"790";"477";"2174";"351";"197.9";"187.7"
"2020-02-07";"2";"29";"12606";"0";"25183";"0";"0";"0";"0";"15253";"0";"0";"0";"90";"5046";"17788";"0";"790";"477";"2174";"351";"197.9";"187.7"
"2020-02-08";"2";"29";"12606";"0";"25183";"0";"0";"0";"0";"15253";"0";"0";"0";"90";"5046";"17788";"0";"790";"477";"2174";"351";"197.9";"187.7"
"2020-02-09";"2";"29";"12606";"0";"25183";"0";"0";"0";"0";"15253";"0";"0";"0";"90";"5046";"17788";"0";"790";"477";"2174";"351";"197.9";"187.7"
"2020-02-13";"2";"29";"12606";"0";"25183";"0";"0";"0";"0";"15253";"0";"0";"0";"90";"5046";"17788";"0";"790";"477";"2174";"351";"197.9";"187.7"
"2020-02-15";"2";"29";"12606";"0";"25183";"0";"0";"0";"0";"15253";"0";"0";"0";"90";"5046";"17788";"0";"790";"477";"2174";"351";"197.9";"187.7"
"2020-02-18";"2";"29";"12606";"0";"25183";"0";"0";"0";"0";"15253";"0";"0";"0";"90";"5046";"17788";"0";"788";"477";"2174";"351";"197.9";"187.7"
"2020-02-19";"2";"29";"12606";"0";"25183";"0";"0";"0";"0";"15253";"0";"0";"0";"90";"5046";"17788";"0";"788";"477";"2174";"351";"197.9";"187.7"
"2020-02-20";"2";"29";"12606";"0";"25183";"0";"0";"0";"0";"15253";"0";"0";"0";"90";"5046";"17788";"0";"788";"477";"2174";"351";"197.9";"187.7"
"2020-02-21";"2";"29";"12606";"0";"25183";"0";"0";"0";"0";"15253";"0";"0";"0";"90";"5046";"17788";"0";"788";"477";"2174";"351";"197.9";"187.7"
"2020-02-22";"2";"29";"12606";"0";"25183";"0";"0";"0";"0";"15253";"0";"0";"0";"90";"5046";"17788";"0";"788";"477";"2174";"351";"197.9";"187.7"
"2020-02-23";"2";"29";"12606";"0";"25183";"0";"0";"0";"0";"15253";"0";"0";"0";"90";"5046";"17788";"0";"788";"477";"2174";"351";"197.9";"187.7"
"2020-02-24";"2";"29";"12606";"0";"25183";"0";"0";"0";"0";"15253";"0";"0";"0";"90";"5046";"17788";"0";"788";"477";"2174";"351";"197.9";"187.7"
"2020-02-25";"2";"29";"12606";"0";"25183";"0";"0";"0";"0";"15253";"0";"0";"0";"90";"5046";"17788";"0";"788";"477";"2174";"351";"197.9";"187.7"
"2020-02-26";"2";"29";"12606";"0";"25183";"0";"0";"0";"0";"15253";"0";"0";"0";"90";"5046";"17788";"0";"788";"477";"2174";"351";"197.9";"187.7"
"2020-02-27";"2";"29";"12606";"0";"25183";"0";"0";"0";"0";"15253";"0";"0";"0";"90";"5046";"17788";"0";"788";"477";"2174";"351";"197.9";"187.7"
"2020-02-28";"2";"29";"12606";"0";"25183";"0";"0";"0";"0";"15253";"0";"0";"0";"90";"5046";"17788";"0";"788";"477";"2174";"351";"197.9";"187.7"
"2020-03-01";"2";"29";"12606";"0";"25183";"0";"0";"0";"0";"15253";"0";"0";"0";"90";"5046";"17788";"0";"788";"477";"2174";"350";"197.9";"187.7"
"2020-03-03";"2";"29";"12606";"0";"25183";"0";"0";"0";"0";"15253";"0";"0";"0";"90";"5046";"17788";"0";"788";"477";"2174";"349";"197.9";"187.7"
"2020-03-04";"2";"29";"12606";"0";"25183";"0";"0";"0";"0";"15253";"0";"0";"0";"90";"5046";"17788";"0";"788";"477";"2174";"349";"197.9";"187.7"
"2020-03-05";"2";"29";"12606";"0";"25183";"0";"0";"0";"0";"15253";"0";"0";"0";"90";"5046";"17788";"0";"788";"477";"2174";"349";"197.9";"187.7"
"2020-03-06";"2";"29";"12606";"0";"25183";"0";"0";"0";"0";"15253";"0";"0";"0";"90";"5046";"17788";"0";"788";"477";"2174";"349";"197.9";"187.7"
"2020-03-07";"2";"29";"12606";"0";"25183";"0";"0";"0";"0";"15253";"0";"0";"0";"90";"5046";"17788";"0";"788";"477";"2174";"349";"197.9";"187.7"
"2020-03-08";"2";"29";"12606";"0";"25183";"0";"0";"0";"0";"15253";"0";"0";"0";"90";"5046";"17788";"0";"788";"477";"2174";"349";"197.9";"187.7"
"2020-03-09";"2";"29";"12606";"0";"25183";"0";"0";"0";"0";"15253";"0";"0";"0";"90";"5046";"17788";"0";"788";"477";"2174";"349";"197.9";"187.7"
"2020-03-10";"2";"29";"12606";"0";"25183";"0";"0";"0";"0";"15253";"0";"0";"0";"90";"5046";"17788";"0";"788";"477";"2174";"349";"197.9";"187.7"
"2020-03-11";"2";"29";"12606";"0";"25183";"0";"0";"0";"0";"15253";"0";"0";"0";"90";"5046";"17788";"0";"788";"477";"2174";"349";"197.9";"187.7"
"2020-03-12";"2";"29";"12606";"0";"25183";"0";"0";"0";"0";"15253";"0";"0";"0";"90";"5046";"17788";"0";"788";"477";"2174";"349";"197.9";"187.7"
"2020-03-13";"2";"29";"12606";"0";"25183";"0";"0";"0";"0";"15253";"0";"0";"0";"90";"5046";"17788";"0";"788";"477";"2174";"349";"197.9";"187.7"
"2020-03-14";"2";"29";"12606";"0";"25183";"0";"0";"0";"0";"15253";"0";"0";"0";"90";"5046";"17788";"0";"788";"477";"2174";"349";"197.9";"187.7"
"2020-03-15";"2";"29";"12606";"0";"25183";"0";"0";"0";"0";"15253";"0";"0";"0";"90";"5046";"17788";"0";"788";"477";"2174";"349";"197.9";"187.7"
"2020-03-16";"2";"29";"12606";"0";"25183";"0";"0";"0";"0";"15253";"0";"0";"0";"90";"5046";"17788";"0";"788";"476";"2174";"349";"197.9";"187.7"
"2020-03-18";"2";"29";"12606";"0";"25183";"0";"0";"0";"0";"15253";"0";"0";"0";"90";"5046";"17788";"0";"788";"476";"2174";"349";"197.9";"187.7"
"2020-03-20";"2";"29";"12606";"0";"25183";"0";"0";"0";"0";"15253";"0";"0";"0";"90";"5046";"17788";"0";"788";"476";"2174";"349";"197.9";"187.7"
"2020-03-23";"2";"29";"12606";"0";"25183";"0";"0";"0";"0";"15253";"0";"0";"0";"90";"5046";"17788";"0";"788";"476";"2174";"349";"197.9";"187.7"
"2020-03-24";"2";"29";"12606";"0";"25183";"0";"0";"0";"0";"15253";"0";"0";"0";"90";"5046";"17788";"0";"788";"476";"2174";"349";"197.9";"187.7"
"2020-03-25";"2";"29";"12606";"0";"25183";"0";"0";"0";"0";"15253";"0";"0";"0";"90";"5046";"17788";"0";"788";"476";"2174";"348";"197.9";"187.7"
"2020-03-26";"2";"29";"12606";"0";"25183";"0";"0";"0";"0";"15253";"0";"0";"0";"90";"5046";"17788";"0";"788";"476";"2174";"346";"197.9";"187.7"
"2020-03-28";"2";"29";"12606";"0";"25183";"0";"0";"0";"0";"15253";"0";"0";"0";"90";"5046";"17788";"0";"788";"476";"2174";"346";"197.9";"187.7"
"2020-03-30";"2";"29";"12606";"0";"25183";"0";"0";"0";"0";"15253";"0";"0";"0";"90";"5046";"17788";"0";"788";"476";"2174";"346";"197.9";"187.7"
"2020-03-31";"2";"29";"12606";"0";"25183";"0";"0";"0";"0";"15253";"0";"0";"0";"90";"5046";"17788";"0";"788";"476";"2174";"346";"197.9";"187.7"
"2020-04-01";"2";"29";"12606";"0";"25183";"0";"0";"0";"0";"15252";"0";"0";"0";"90";"5046";"17788";"0";"788";"476";"2174";"346";"197.9";"187.7"
"2020-04-02";"2";"29";"12606";"0";"25183";"0";"0";"0";"0";"15252";"0";"0";"0";"90";"5046";"17788";"0";"788";"476";"2174";"346";"197.9";"187.7"
"2020-04-03";"2";"29";"12606";"0";"25183";"0";"0";"0";"0";"15252";"0";"0";"0";"90";"5046";"17788";"0";"788";"476";"2174";"346";"197.9";"187.7"
"2020-04-04";"2";"29";"12606";"0";"25183";"0";"0";"0";"0";"15252";"0";"0";"0";"90";"5046";"17788";"0";"788";"476";"2174";"346";"197.9";"187.7"
"2020-04-05";"2";"29";"12606";"0";"25183";"0";"0";"0";"0";"15252";"0";"0";"0";"90";"5046";"17788";"0";"788";"476";"2174";"346";"197.9";"187.7"
"2020-04-06";"2";"29";"12606";"0";"25183";"0";"0";"0";"0";"15252";"0";"0";"0";"90";"5046";"17788";"0";"788";"476";"2174";"346";"197.9";"187.7"
"2020-04-07";"2";"29";"12606";"0";"25183";"0";"0";"0";"0";"15252";"0";"0";"0";"90";"5046";"17788";"0";"788";"476";"2174";"346";"197.9";"187.7"
"2020-04-08";"2";"29";"12606";"0";"25183";"0";"0";"0";"0";"15252";"0";"0";"0";"90";"5046";"17788";"0";"788";"476";"2174";"346";"197.9";"187.7"
"2020-04-09";"2";"29";"12606";"0";"25183";"0";"0";"0";"0";"15252";"0";"0";"0";"90";"5046";"17788";"0";"788";"476";"2174";"346";"197.9";"187.7"
"2020-04-10";"2";"29";"12606";"0";"25183";"0";"0";"0";"0";"15252";"0";"0";"0";"90";"5046";"17788";"0";"788";"476";"2174";"346";"197.9";"187.7"
"2020-04-11";"2";"29";"12606";"0";"25183";"0";"0";"0";"0";"15252";"0";"0";"0";"90";"5046";"17788";"0";"788";"476";"2174";"346";"197.9";"187.7"
"2020-04-12";"2";"29";"12606";"0";"25183";"0";"0";"0";"0";"15252";"0";"0";"0";"90";"5046";"17788";"0";"788";"476";"2174";"345";"197.9";"187.7"
"2020-04-13";"2";"29";"12606";"0";"25183";"0";"0";"0";"0";"15252";"0";"0";"0";"90";"5046";"17788";"0";"788";"476";"2174";"345";"197.9";"187.7"
"2020-04-14";"2";"29";"12606";"0";"25183";"0";"0";"0";"0";"15252";"0";"0";"0";"90";"5046";"17788";"0";"788";"476";"2174";"345";"197.9";"187.7"
"2020-04-15";"2";"29";"12606";"0";"25183";"0";"0";"0";"0";"15252";"0";"0";"0";"90";"5046";"17788";"0";"788";"476";"2174";"345";"197.9";"187.7"
"2020-04-16";"2";"29";"12606";"0";"25183";"0";"0";"0";"0";"15252";"0";"0";"0";"90";"5046";"17788";"0";"788";"476";"2174";"345";"197.9";"187.7"
"2020-04-17";"2";"29";"12606";"0";"25183";"0";"0";"0";"0";"15252";"0";"0";"0";"90";"5046";"17788";"0";"788";"476";"2174";"345";"197.9";"187.7"
"2020-04-18";"2";"29";"12606";"0";"25183";"0";"0";"0";"0";"15252";"0";"0";"0";"90";"5046";"17788";"0";"788";"476";"2174";"343";"197.9";"187.7"
"2020-04-19";"2";"29";"12606";"0";"25183";"0";"0";"0";"0";"15252";"0";"0";"0";"90";"5046";"17788";"0";"788";"476";"2174";"343";"197.9";"187.7"
"2020-04-20";"2";"29";"12606";"0";"25183";"0";"0";"0";"0";"15252";"0";"0";"0";"90";"5046";"17788";"0";"788";"476";"2174";"343";"197.9";"187.7"
"2020-04-21";"2";"29";"12606";"0";"25183";"0";"0";"0";"0";"15252";"0";"0";"0";"90";"5046";"17788";"0";"788";"476";"2174";"343";"197.9";"187.7"
"2020-04-22";"2";"29";"12606";"0";"25183";"0";"0";"0";"0";"15252";"0";"0";"0";"90";"5046";"17788";"0";"788";"476";"2174";"343";"197.9";"187.7"
"2020-04-23";"2";"29";"12606";"0";"25183";"0";"0";"0";"0";"15252";"0";"0";"0";"90";"5046";"17788";"0";"788";"476";"2174";"343";"197.9";"187.7"
"2020-04-25";"2";"29";"12606";"0";"25183";"0";"0";"0";"0";"15252";"0";"0";"0";"90";"5046";"17788";"0";"788";"476";"2174";"343";"197.9";"187.7"
"2020-04-26";"2";"29";"12606";"0";"25183";"0";"0";"0";"0";"15252";"0";"0";"0";"90";"5046";"17788";"0";"788";"476";"2174";"343";"197.9";"187.7"
"2020-04-27";"2";"29";"12606";"0";"25183";"0";"0";"0";"0";"15252";"0";"0";"0";"90";"5046";"17788";"0";"788";"476";"2174";"343";"197.9";"187.7"
"2020-04-28";"2";"29";"12606";"0";"25183";"0";"0";"0";"0";"15252";"0";"0";"0";"90";"5046";"17788";"0";"788";"476";"2174";"343";"197.9";"187.7"
"2020-04-29";"2";"29";"12606";"0";"25183";"0";"0";"0";"0";"15252";"0";"0";"0";"90";"5046";"17788";"0";"788";"476";"2174";"343";"197.9";"187.7"
"2020-04-30";"2";"29";"12606";"0";"25183";"0";"0";"0";"0";"15252";"0";"0";"0";"90";"5046";"17788";"0";"788";"476";"2174";"343";"197.9";"187.7"
"2020-05-01";"2";"29";"12606";"0";"25183";"0";"0";"0";"0";"15252";"0";"0";"0";"90";"5046";"17788";"0";"788";"476";"2174";"343";"197.9";"187.7"
"2020-05-02";"2";"29";"12606";"0";"25183";"0";"0";"0";"0";"15252";"0";"0";"0";"90";"5046";"17788";"0";"788";"476";"2174";"343";"197.9";"187.7"
"2020-05-03";"2";"29";"12606";"0";"25183";"0";"0";"0";"0";"15252";"0";"0";"0";"90";"5046";"17788";"0";"788";"476";"2174";"343";"197.9";"187.7"
"2020-05-04";"2";"29";"12606";"0";"25183";"0";"0";"0";"0";"15252";"0";"0";"0";"90";"5046";"17788";"0";"788";"476";"2174";"343";"197.9";"187.7"
"2020-05-05";"2";"29";"12606";"0";"25183";"0";"0";"0";"0";"15252";"0";"0";"0";"90";"8649";"17788";"0";"788";"476";"2174";"343";"197.9";"187.7"
"2020-05-06";"2";"29";"12606";"0";"25183";"0";"0";"0";"0";"15252";"0";"0";"0";"90";"8847";"17788";"0";"788";"476";"2174";"343";"197.9";"187.7"
"2020-05-07";"2";"29";"12606";"0";"25183";"0";"0";"0";"0";"15252";"0";"0";"0";"90";"8847";"17788";"0";"788";"476";"2174";"343";"197.9";"187.7"
"2020-05-08";"2";"29";"12606";"0";"25183";"0";"0";"0";"0";"15252";"0";"0";"0";"90";"8847";"17788";"0";"788";"476";"2174";"343";"197.9";"187.7"
"2020-05-09";"2";"29";"12606";"0";"25183";"0";"0";"0";"0";"15252";"0";"0";"0";"90";"8847";"17788";"0";"788";"476";"2174";"343";"197.9";"187.7"
"2020-05-10";"2";"29";"12606";"0";"25183";"0";"0";"0";"0";"15252";"0";"0";"0";"90";"8847";"17788";"0";"788";"475";"2174";"343";"197.9";"187.7"
"2020-05-11";"2";"29";"12606";"0";"25183";"0";"0";"0";"0";"15252";"0";"0";"0";"90";"8847";"17788";"0";"788";"475";"2174";"343";"197.9";"187.7"
"2020-05-12";"2";"29";"12606";"0";"25183";"0";"0";"0";"0";"15252";"0";"0";"0";"90";"8847";"17788";"0";"788";"475";"2174";"343";"197.9";"187.7"
"2020-05-13";"2";"29";"12606";"0";"25183";"0";"0";"0";"0";"15252";"0";"0";"0";"90";"8847";"17788";"0";"788";"475";"2174";"343";"197.9";"187.7"
"2020-05-14";"2";"29";"12606";"0";"25183";"0";"0";"0";"0";"15252";"0";"0";"0";"90";"8847";"17788";"0";"788";"475";"2174";"343";"197.9";"187.7"
"2020-05-15";"2";"29";"12606";"0";"25183";"0";"0";"0";"0";"15252";"0";"0";"0";"90";"8847";"17788";"0";"788";"475";"2174";"343";"197.9";"187.7"
"2020-05-16";"2";"29";"12606";"0";"25183";"0";"0";"0";"0";"15252";"0";"0";"0";"90";"8847";"17788";"0";"788";"475";"2174";"343";"197.9";"187.7"
"2020-05-17";"2";"29";"12606";"0";"25183";"0";"0";"0";"0";"15252";"0";"0";"0";"90";"8847";"17788";"0";"788";"475";"2174";"343";"197.9";"187.7"
"2020-05-18";"2";"29";"12606";"0";"25183";"0";"0";"0";"0";"15252";"0";"0";"0";"90";"8847";"17788";"0";"788";"475";"2174";"343";"197.9";"187.7"
"2020-05-19";"2";"29";"12606";"0";"25183";"0";"0";"0";"0";"15252";"0";"0";"0";"90";"8847";"17788";"0";"788";"475";"2174";"343";"197.9";"187.7"
"2020-05-20";"2";"29";"12606";"0";"25183";"0";"0";"0";"0";"15252";"0";"0";"0";"90";"8847";"17788";"0";"788";"475";"2174";"343";"197.9";"187.7"
"2020-05-21";"2";"29";"12606";"0";"25183";"0";"0";"0";"0";"15252";"0";"0";"0";"90";"8847";"17788";"0";"788";"475";"2174";"343";"197.9";"187.7"
"2020-05-22";"2";"29";"12606";"0";"25183";"0";"0";"0";"0";"15252";"0";"0";"0";"90";"8847";"17788";"0";"788";"475";"2174";"343";"197.9";"187.7"
"2020-05-23";"2";"29";"12606";"0";"25183";"0";"0";"0";"0";"15252";"0";"0";"0";"90";"8847";"17788";"0";"788";"475";"2174";"343";"197.9";"187.7"
"2020-05-24";"2";"29";"12606";"0";"25183";"0";"0";"0";"0";"15252";"0";"0";"0";"90";"8847";"17788";"0";"788";"475";"2174";"343";"197.9";"187.7"
"2020-05-25";"2";"29";"12606";"0";"25183";"0";"0";"0";"0";"15252";"0";"0";"0";"90";"8847";"17788";"0";"788";"475";"2174";"343";"197.9";"187.7"
"2020-05-26";"2";"29";"12606";"0";"25183";"0";"0";"0";"0";"15252";"0";"0";"0";"90";"8847";"17788";"0";"788";"475";"2174";"343";"197.9";"187.7"
"2020-05-27";"2";"29";"12606";"0";"25183";"0";"0";"0";"0";"15252";"0";"0";"0";"90";"8847";"17788";"0";"788";"475";"2174";"343";"197.9";"187.7"
"2020-05-28";"2";"29";"12606";"0";"25183";"0";"0";"0";"0";"15252";"0";"0";"0";"90";"8847";"17788";"0";"788";"475";"2174";"343";"197.9";"187.7"
"2020-05-29";"2";"29";"12606";"0";"25183";"0";"0";"0";"0";"15252";"0";"0";"0";"90";"8847";"17788";"0";"788";"475";"2174";"343";"197.9";"187.7"
"2020-05-30";"2";"29";"12606";"0";"25183";"0";"0";"0";"0";"15252";"0";"0";"0";"90";"8847";"17788";"0";"788";"475";"2174";"343";"197.9";"187.7"
"2020-05-31";"2";"29";"12606";"0";"25183";"0";"0";"0";"0";"15252";"0";"0";"0";"90";"8847";"17788";"0";"788";"475";"2174";"343";"197.9";"187.7"
"2020-06-01";"2";"29";"12606";"0";"25183";"0";"0";"0";"0";"15252";"0";"0";"0";"90";"8847";"17788";"0";"788";"475";"2174";"343";"197.9";"187.7"
"2020-06-02";"2";"29";"12606";"0";"25183";"0";"0";"0";"0";"15252";"0";"0";"0";"90";"8847";"17788";"0";"788";"475";"2174";"343";"197.9";"187.7"
"2020-06-03";"2";"29";"12606";"0";"25183";"0";"0";"0";"0";"15252";"0";"0";"0";"90";"8847";"17788";"0";"788";"475";"2174";"343";"197.9";"187.7"
"2020-06-04";"2";"29";"12606";"0";"25183";"0";"0";"0";"0";"15252";"0";"0";"0";"90";"8847";"17788";"0";"788";"475";"2174";"343";"197.9";"187.7"
"2020-06-05";"2";"29";"12606";"0";"25183";"0";"0";"0";"0";"15252";"0";"0";"0";"90";"8847";"17788";"0";"788";"475";"2174";"343";"197.9";"187.7"
"2020-06-06";"2";"29";"12606";"0";"25183";"0";"0";"0";"0";"15252";"0";"0";"0";"90";"8847";"17788";"0";"788";"475";"2174";"343";"197.9";"187.7"
"2020-06-07";"2";"29";"12606";"0";"25183";"0";"0";"0";"0";"15252";"0";"0";"0";"90";"8847";"17788";"0";"788";"475";"2174";"343";"197.9";"187.7"
"2020-06-08";"2";"29";"12606";"0";"25183";"0";"0";"0";"0";"15252";"0";"0";"0";"90";"8847";"17788";"0";"788";"475";"2174";"343";"197.9";"187.7"
"2020-06-09";"2";"29";"12606";"0";"25183";"0";"0";"0";"0";"15252";"0";"0";"0";"90";"8847";"17788";"0";"788";"475";"2174";"343";"197.9";"187.7"
"2020-06-10";"2";"29";"12606";"0";"25183";"0";"0";"0";"0";"15252";"0";"0";"0";"90";"8847";"17788";"0";"788";"475";"2174";"343";"197.9";"187.7"
"2020-06-11";"2";"29";"12606";"0";"25183";"0";"0";"0";"0";"15252";"0";"0";"0";"90";"8847";"17788";"0";"788";"475";"2174";"343";"197.9";"187.7"
"2020-06-12";"2";"29";"12606";"0";"25183";"0";"0";"0";"0";"15252";"0";"0";"0";"90";"8847";"17788";"0";"788";"475";"2174";"343";"197.9";"187.7"
"2020-06-13";"2";"29";"12606";"0";"25183";"0";"0";"0";"0";"15252";"0";"0";"0";"90";"8847";"17788";"0";"788";"475";"2174";"343";"197.9";"187.7"
"2020-06-14";"2";"29";"12606";"0";"25183";"0";"0";"0";"0";"15252";"0";"0";"0";"90";"8847";"17788";"0";"788";"475";"2174";"343";"197.9";"187.7"